When you browse on this site, cookies collect data to enhance your experience and personalize the content and advertising you see.
Visit our Privacy Policy to learn more. By continuing to use the site, you agree to this use of cookies and data.
  • In Hungary
  • List of Countries
  • For 7 days
  • Water Temperature
  • Satellite Maps
  • Weather Map
  • News
  • Weather Widgets
  • user-avatar
    Login

    Hourly Weather Kaprun

    Today, 18 November, Sunday

    Time Temperature Precipitation Wind Pressure Humidity
    00:00 -8°C° 0 mm 1 mps 597 mmHg 72%
    01:00 -8°C° 0 mm 1 mps 597 mmHg 70%
    02:00 -8°C° 0 mm 1 mps 597 mmHg 68%
    03:00 -8°C° 0 mm 1 mps 596 mmHg 67%
    04:00 -8°C° 0 mm 1 mps 596 mmHg 65%
    05:00 -8°C° 0 mm 1 mps 596 mmHg 64%
    06:00 -8°C° 0 mm 1 mps 596 mmHg 64%
    07:00 -8°C° 0 mm 1 mps 595 mmHg 59%
    08:00 -7°C° 0 mm 1 mps 596 mmHg 56%
    09:00 -4°C° 0 mm 1 mps 596 mmHg 53%
    10:00 -2°C° 0 mm 1 mps 597 mmHg 49%
    11:00 -2°C° 0 mm 1 mps 597 mmHg 48%
    12:00 -1°C° 0 mm 1 mps 597 mmHg 48%
    13:00 0°C° 0 mm 1 mps 597 mmHg 47%
    14:00 -1°C° 0 mm 1 mps 596 mmHg 53%
    15:00 -3°C° 0 mm 1 mps 594 mmHg 60%
    16:00 -4°C° 0 mm 1 mps 593 mmHg 66%
    17:00 -6°C° 0 mm 1 mps 593 mmHg 72%
    18:00 -7°C° 0 mm 1 mps 592 mmHg 79%
    19:00 -8°C° 0 mm 1 mps 592 mmHg 85%
    20:00 -8°C° 0 mm 1 mps 592 mmHg 85%
    21:00 -8°C° 0 mm 1 mps 592 mmHg 86%
    22:00 -7°C° 0 mm 1 mps 592 mmHg 86%
    23:00 -7°C° 0.2 mm 1 mps 591 mmHg 87%

    Tomorrow, 19 November, Monday

    Time Temperature Precipitation Wind Pressure Humidity
    00:00 -7°C° 0.2 mm 1 mps 591 mmHg 88%
    01:00 -8°C° 0.2 mm 1 mps 591 mmHg 89%
    02:00 -8°C° 0.3 mm 1 mps 590 mmHg 89%
    03:00 -8°C° 0.3 mm 1 mps 590 mmHg 90%
    04:00 -8°C° 0.3 mm 1 mps 590 mmHg 91%
    05:00 -8°C° 0.2 mm 1 mps 589 mmHg 91%
    06:00 -8°C° 0.2 mm 1 mps 589 mmHg 91%
    07:00 -8°C° 0.2 mm 1 mps 589 mmHg 91%
    08:00 -8°C° 0.1 mm 1 mps 589 mmHg 86%
    09:00 -7°C° 0.1 mm 1 mps 589 mmHg 81%
    10:00 -8°C° 0.1 mm 2 mps 589 mmHg 76%
    11:00 -7°C° 0 mm 2 mps 589 mmHg 72%
    12:00 -7°C° 0 mm 2 mps 589 mmHg 68%
    13:00 -6°C° 0 mm 2 mps 589 mmHg 65%
    14:00 -7°C° 0 mm 2 mps 589 mmHg 68%
    15:00 -7°C° 0 mm 2 mps 588 mmHg 72%
    16:00 -8°C° 0 mm 2 mps 588 mmHg 75%
    17:00 -9°C° 0 mm 2 mps 587 mmHg 79%
    18:00 -10°C° 0 mm 2 mps 587 mmHg 82%
    19:00 -12°C° 0 mm 2 mps 587 mmHg 85%
    20:00 -10°C° 0 mm 2 mps 587 mmHg 83%
    21:00 -10°C° 0 mm 2 mps 587 mmHg 81%
    22:00 -10°C° 0 mm 2 mps 587 mmHg 79%
    23:00 -10°C° 0.1 mm 2 mps 586 mmHg 79%

    Day after tomorrow, 20 November, Tuesday

    Time Temperature Precipitation Wind Pressure Humidity
    00:00 -9°C° 0.1 mm 2 mps 586 mmHg 79%
    01:00 -9°C° 0.1 mm 2 mps 586 mmHg 79%
    02:00 -9°C° 0.4 mm 2 mps 586 mmHg 80%
    03:00 -9°C° 0.4 mm 2 mps 585 mmHg 82%
    04:00 -8°C° 0.4 mm 2 mps 585 mmHg 84%
    05:00 -7°C° 0.5 mm 1 mps 585 mmHg 85%
    06:00 -7°C° 0.5 mm 1 mps 585 mmHg 86%
    07:00 -7°C° 0.5 mm 1 mps 584 mmHg 87%
    08:00 -7°C° 0.4 mm 2 mps 585 mmHg 85%
    09:00 -6°C° 0.4 mm 2 mps 585 mmHg 82%
    10:00 -5°C° 0.4 mm 2 mps 586 mmHg 80%
    11:00 -4°C° 0.1 mm 2 mps 586 mmHg 78%
    12:00 -3°C° 0.1 mm 2 mps 587 mmHg 75%
    13:00 -2°C° 0.1 mm 2 mps 587 mmHg 73%
    14:00 -3°C° 0 mm 2 mps 587 mmHg 78%
    15:00 -4°C° 0 mm 2 mps 586 mmHg 83%
    16:00 -5°C° 0 mm 2 mps 586 mmHg 87%
    17:00 -6°C° 0 mm 2 mps 586 mmHg 88%
    18:00 -7°C° 0 mm 2 mps 586 mmHg 88%
    19:00 -8°C° 0 mm 2 mps 586 mmHg 88%
    20:00 -8°C° 0 mm 2 mps 587 mmHg 87%
    21:00 -8°C° 0 mm 2 mps 587 mmHg 86%
    22:00 -8°C° 0 mm 2 mps 587 mmHg 85%
    23:00 -8°C° 0 mm 2 mps 588 mmHg 85%

    21 November, Wednesday

    Time Temperature Precipitation Wind Pressure Humidity
    00:00 -8°C° 0 mm 2 mps 588 mmHg 84%
    01:00 -8°C° 0 mm 2 mps 588 mmHg 84%
    02:00 -8°C° 0 mm 2 mps 588 mmHg 82%
    03:00 -8°C° 0 mm 2 mps 588 mmHg 81%
    04:00 -7°C° 0 mm 1 mps 588 mmHg 79%
    05:00 -7°C° 0 mm 1 mps 588 mmHg 78%
    06:00 -8°C° 0 mm 2 mps 589 mmHg 77%
    07:00 -8°C° 0 mm 2 mps 589 mmHg 76%
    08:00 -6°C° 0 mm 2 mps 590 mmHg 72%
    09:00 -4°C° 0 mm 2 mps 591 mmHg 69%
    10:00 -2°C° 0 mm 2 mps 591 mmHg 65%
    11:00 -1°C° 0 mm 2 mps 592 mmHg 64%
    12:00 +1°C° 0 mm 2 mps 592 mmHg 64%
    13:00 +1°C° 0 mm 3 mps 592 mmHg 63%
    14:00 +1°C° 0 mm 2 mps 592 mmHg 68%
    15:00 -2°C° 0 mm 2 mps 591 mmHg 74%
    16:00 -3°C° 0 mm 2 mps 591 mmHg 79%
    17:00 -4°C° 0 mm 2 mps 591 mmHg 80%
    18:00 -5°C° 0 mm 2 mps 591 mmHg 81%
    19:00 -5°C° 0 mm 2 mps 591 mmHg 82%
    20:00 -5°C° 0 mm 2 mps 591 mmHg 82%
    21:00 -6°C° 0 mm 2 mps 592 mmHg 82%
    22:00 -6°C° 0 mm 2 mps 592 mmHg 82%
    23:00 -6°C° 0 mm 2 mps 592 mmHg 82%

    22 November, Thursday

    Time Temperature Precipitation Wind Pressure Humidity
    00:00 -6°C° 0 mm 2 mps 592 mmHg 83%
    01:00 -4°C° 0 mm 1 mps 592 mmHg 83%
    02:00 -6°C° 0 mm 1 mps 593 mmHg 84%
    03:00 -6°C° 0 mm 1 mps 593 mmHg 85%
    04:00 -6°C° 0 mm 1 mps 593 mmHg 86%
    05:00 -6°C° 0 mm 1 mps 593 mmHg 86%
    06:00 -6°C° 0 mm 1 mps 593 mmHg 86%
    07:00 -6°C° 0 mm 1 mps 593 mmHg 86%
    08:00 -3°C° 0 mm 1 mps 594 mmHg 82%
    09:00 -2°C° 0 mm 1 mps 595 mmHg 78%
    10:00 0°C° 0 mm 1 mps 596 mmHg 74%
    11:00 +1°C° 0 mm 1 mps 596 mmHg 73%
    12:00 +1°C° 0 mm 1 mps 596 mmHg 73%
    13:00 +2°C° 0 mm 1 mps 596 mmHg 72%
    14:00 +1°C° 0 mm 1 mps 596 mmHg 78%
    15:00 0°C° 0 mm 1 mps 596 mmHg 84%
    16:00 -1°C° 0 mm 1 mps 596 mmHg 90%
    17:00 -2°C° 0 mm 1 mps 596 mmHg 91%
    18:00 -3°C° 0 mm 1 mps 596 mmHg 92%
    19:00 -4°C° 0 mm 1 mps 596 mmHg 93%
    20:00 -4°C° 0 mm 1 mps 596 mmHg 92%
    21:00 -4°C° 0 mm 1 mps 596 mmHg 92%
    22:00 -4°C° 0 mm 1 mps 596 mmHg 91%
    23:00 -6°C° 0 mm 1 mps 596 mmHg 90%

    23 November, Friday

    Time Temperature Precipitation Wind Pressure Humidity
    00:00 -6°C° 0 mm 1 mps 596 mmHg 89%
    01:00 -6°C° 0 mm 1 mps 596 mmHg 87%
    02:00 -6°C° 0 mm 1 mps 596 mmHg 86%
    03:00 -6°C° 0 mm 1 mps 597 mmHg 85%
    04:00 -6°C° 0 mm 1 mps 597 mmHg 84%
    05:00 -7°C° 0 mm 1 mps 597 mmHg 83%
    06:00 -7°C° 0 mm 1 mps 597 mmHg 82%
    07:00 -7°C° 0 mm 1 mps 597 mmHg 80%
    08:00 -4°C° 0 mm 1 mps 598 mmHg 76%
    09:00 -2°C° 0 mm 1 mps 599 mmHg 71%
    10:00 -1°C° 0 mm 1 mps 600 mmHg 67%
    11:00 0°C° 0 mm 1 mps 600 mmHg 64%
    12:00 +1°C° 0 mm 1 mps 600 mmHg 62%
    13:00 +2°C° 0 mm 1 mps 600 mmHg 59%
    14:00 +1°C° 0 mm 1 mps 599 mmHg 65%
    15:00 -1°C° 0 mm 1 mps 599 mmHg 71%
    16:00 -2°C° 0 mm 1 mps 598 mmHg 77%
    17:00 -2°C° 0 mm 1 mps 598 mmHg 78%
    18:00 -3°C° 0 mm 1 mps 598 mmHg 78%
    19:00 -5°C° 0 mm 2 mps 598 mmHg 78%
    20:00 -5°C° 0 mm 2 mps 597 mmHg 79%
    21:00 -5°C° 0 mm 2 mps 597 mmHg 79%
    22:00 -5°C° 0 mm 2 mps 597 mmHg 79%
    23:00 -5°C° 0.1 mm 2 mps 597 mmHg 81%
    Show more